Location: Prague
(50.0830°N, 14.4670°E)
Time: 22:58:18
(UTC+01:00)

M-CUBED/EXP-1 PRIME - Visible Passes

Search period start: 05 December 2021 00:00
Search period end: 15 December 2021 00:00
Orbit: 427 x 652 km, 101.7° (Epoch: 04 December)

Date Brightness Start Highest point End Pass type
(mag) Time Alt. Az. Time Alt. Az. Time Alt. Az.
05 Dec ? 05:59:16 10° ENE 06:01:54 15° E 06:04:27 10° SE visible
05 Dec ? 16:45:32 10° SE 16:49:21 35° ENE 16:53:22 10° N visible
05 Dec ? 18:19:42 10° SSW 18:23:25 31° W 18:27:21 10° NW visible
06 Dec ? 05:52:25 10° ENE 05:54:13 12° E 05:56:01 10° ESE visible
06 Dec ? 16:38:12 10° ESE 16:41:53 30° ENE 16:45:44 10° N visible
06 Dec ? 18:11:54 10° S 18:15:49 38° WSW 18:19:57 10° NNW visible
07 Dec ? 16:30:55 10° ESE 16:34:26 25° NE 16:38:05 10° N visible
07 Dec ? 18:04:09 10° S 18:08:13 48° WSW 18:12:31 10° NNW visible
08 Dec ? 17:56:27 10° S 18:00:37 60° WSW 18:05:03 10° NNW visible
09 Dec ? 07:01:56 10° NNE 07:06:15 46° ESE 07:10:21 10° S visible
09 Dec ? 17:48:47 10° SSE 17:53:03 74° WSW 17:57:32 10° NNW visible
10 Dec ? 06:54:29 10° NE 06:58:38 37° ESE 07:02:34 10° S visible
10 Dec ? 17:41:10 10° SSE 17:45:29 90° NE 17:50:00 10° NNW visible
10 Dec ? 19:18:18 10° WSW 19:20:12 13° W 19:22:06 10° WNW visible
11 Dec ? 06:47:04 10° NE 06:50:59 30° E 06:54:43 10° SSE visible
11 Dec ? 17:33:36 10° SSE 17:37:55 74° ENE 17:42:25 10° NNW visible
11 Dec ? 19:09:52 10° SW 19:12:29 16° W 19:15:09 10° WNW visible
12 Dec ? 06:39:42 10° NE 06:43:19 25° E 06:46:47 10° SSE visible
12 Dec ? 17:26:05 10° SE 17:30:21 60° ENE 17:34:49 10° NNW visible
12 Dec ? 19:01:39 10° SW 19:04:47 19° W 19:07:59 10° NW visible
13 Dec ? 06:32:23 10° NE 06:35:38 20° E 06:38:44 10° SE visible
13 Dec ? 17:18:35 10° SE 17:22:48 49° ENE 17:27:11 10° N visible
13 Dec ? 18:53:34 10° SSW 18:57:05 23° W 19:00:41 10° NW visible
14 Dec ? 06:25:10 10° NE 06:27:54 16° E 06:30:32 10° SE visible
14 Dec ? 17:11:08 10° SE 17:15:15 41° ENE 17:19:30 10° N visible
14 Dec ? 18:45:36 10° SSW 18:49:24 28° W 18:53:19 10° NW visible
